FW2545 Weather Reports


Display with metric or nautical units.
time (UTC)temp
F
wind
direction
speed
MPH
gust
MPH
rain 1hr
in
rain 24hr
in
rain mn
in
humidity
%
barometer
mb
20260503034531 64 221 0.0 4.0 0.00 0.00 0.00 58 1016.0
20260503033105 66 230 1.0 9.0 0.00 0.00 0.00 57 1015.7
20260503030030 66 169 1.0 4.0 0.00 0.00 0.00 61 1014.9
20260503024529 68 338 0.0 4.0 0.00 0.00 0.00 58 1014.6
20260503023030 69 337 2.0 4.0 0.00 0.00 0.00 54 1014.4
20260503021607 71 341 3.0 4.0 0.00 0.00 0.00 51 1014.3
20260503014529 75 22 3.0 5.0 0.00 0.00 0.00 43 1014.0
20260503013030 76 17 3.0 6.0 0.00 0.00 0.00 39 1014.0
20260503011531 77 10 4.0 9.0 0.00 0.00 0.00 38 1014.1
20260503010104 78 10 4.0 9.0 0.00 0.00 0.00 38 1014.1
20260503004529 78 12 5.0 11.0 0.00 0.00 0.00 37 1014.1
20260503003139 78 16 5.0 10.0 0.00 0.00 0.00 37 1014.1
20260503001533 78 26 5.0 13.0 0.00 0.00 0.00 38 1014.3
20260503000034 79 26 4.0 10.0 0.00 0.00 0.00 39 1014.4
20260502234533 79 14 5.0 13.0 0.00 0.00 0.00 38 1014.5
20260502231532 79 353 6.0 13.0 0.00 0.00 0.00 38 1014.7
20260502230037 80 11 6.0 13.0 0.00 0.00 0.00 37 1014.9
20260502224531 80 19 6.0 14.0 0.00 0.00 0.00 37 1015.1
20260502223108 81 11 6.0 16.0 0.00 0.00 0.00 38 1015.4
20260502221529 81 357 4.0 11.0 0.00 0.00 0.00 38 1015.6
20260502220032 81 341 5.0 12.0 0.00 0.00 0.00 38 1015.8
20260502214531 80 6 5.0 11.0 0.00 0.00 0.00 40 1015.9
20260502213030 79 1 5.0 12.0 0.00 0.00 0.00 41 1016.0
20260502211530 77 29 4.0 10.0 0.00 0.00 0.00 44 1016.2
20260502210103 77 9 4.0 9.0 0.00 0.00 0.00 43 1016.4
20260502204532 79 38 4.0 11.0 0.00 0.00 0.00 43 1016.4
20260502203031 79 24 3.0 9.0 0.00 0.00 0.00 44 1016.5
20260502201607 79 22 4.0 12.0 0.00 0.00 0.00 45 1016.8
20260502191530 77 276 1.0 5.0 0.00 0.00 0.00 47 1017.3
20260502190028 74 249 2.0 7.0 0.00 0.00 0.00 54 1017.5
20260502184603 70 268 2.0 8.0 0.00 0.00 0.00 59 1017.7
20260502183106 68 269 2.0 6.0 0.00 0.00 0.00 61 1017.6
20260502181530 66 250 3.0 6.0 0.00 0.00 0.00 65 1017.6
20260502180115 65 278 2.0 4.0 0.00 0.00 0.00 68 1017.5
20260502180104 64 264 1.0 3.0 0.00 0.00 0.00 71 1017.5
20260502163030 57 42 3.0 6.0 0.00 0.00 0.00 83 1018.2
20260502161532 56 55 3.0 8.0 0.00 0.00 0.00 85 1018.1
20260502123031 51 204 0.0 3.0 0.00 0.00 0.00 86 1016.3
20260502114531 52 307 2.0 8.0 0.00 0.00 0.00 84 1016.4
20260502113031 52 247 3.0 8.0 0.00 0.00 0.00 84 1016.6
20260502110040 51 32 2.0 7.0 0.00 0.00 0.00 85 1016.3
20260502104529 51 48 1.0 6.0 0.00 0.00 0.00 84 1016.7
20260502103030 51 82 1.0 4.0 0.00 0.00 0.00 84 1016.7
20260502091534 49 259 2.0 5.0 0.00 0.00 0.00 82 1016.6
20260502090107 49 208 1.0 5.0 0.00 0.00 0.00 82 1016.9
20260502071530 50 247 0.0 1.0 0.00 0.00 0.00 79 1017.1
20260502070027 50 247 0.0 3.0 0.00 0.00 0.00 78 1017.1
20260502064532 51 223 0.0 3.0 0.00 0.00 0.00 77 1017.1
20260502063029 51 204 0.0 3.0 0.00 0.00 0.00 76 1017.1
20260502054528 53 270 1.0 5.0 0.00 0.00 0.00 74 1016.9
20260502053145 53 292 2.0 5.0 0.00 0.00 0.00 73 1016.8
20260502050031 57 45 0.0 2.0 0.00 0.00 0.00 67 1016.7
20260502043105 62 42 2.0 5.0 0.00 0.00 0.00 57 1016.5
20260502041606 64 33 4.0 7.0 0.00 0.00 0.00 52 1016.3
20260502040104 65 348 4.0 9.0 0.00 0.00 0.00 49 1016.1